Regional Weather Roundup
Issued by NWS Raleigh/Durham, NC

Home | Current Version | Previous Version | Text Only | Print | Product List | Glossary On
Versions: 1 2 3 4 5 6 7 8 9 10 11 12 13 14 15 16 17 18 19 20 21 22 23 24 25 26 27 28 29 30 31 32 33 34 35 36 37 38 39 40 41 42 43 44 45 46 47 48 49 50
416
ASUS42 KRAH 220210
RWRRAH
NORTH CAROLINA WEATHER ROUNDUP
NATIONAL WEATHER SERVICE RALEIGH NC
900 PM EST SAT JAN 21 2017

NOTE: "FAIR" INDICATES FEW OR NO CLOUDS BELOW 12,000 FEET WITH NO
SIGNIFICANT WEATHER AND/OR OBSTRUCTIONS TO VISIBILITY.

NCZ001-053-055-056-065-067-220300-
WESTERN NORTH CAROLINA

CITY           SKY/WX    TMP DP  RH WIND       PRES   REMARKS
ASHEVILLE      CLOUDY    52  50  93 CALM      29.70F
JEFFERSON      FOG       48  48 100 CALM      29.71F VSB 1/2
MORGANTON      CLOUDY    52  52 100 N5        29.74S
HICKORY        CLOUDY    53  53 100 NW5       29.69S FOG
RUTHERFORDTON  CLOUDY    54  54 100 CALM      29.69S
MOUNT AIRY     DRIZZLE   53  52  94 CALM      29.72S
BOONE          CLOUDY    49  49 100 CALM      29.73R FOG
$$

NCZ021-022-025-041-071-084-088-220300-
CENTRAL NORTH CAROLINA

CITY           SKY/WX    TMP DP  RH WIND       PRES   REMARKS
CHARLOTTE      CLOUDY    55  53  93 N7        29.66S
GREENSBORO     HVY RAIN  53  53 100 NE7       29.68S FOG
WINSTON-SALEM  CLOUDY    53  51  93 NE7       29.70S FOG
RALEIGH-DURHAM FOG       54  53  97 E6        29.69F VSB 1/4
FORT BRAGG     FOG       59  59 100 N3        29.64S VSB 1
FAYETTEVILLE   CLOUDY    62  61  96 N3        29.64S FOG
BURLINGTON     CLOUDY    54  53  97 NE7       29.67F
LAURINBURG     CLOUDY    61  60  97 CALM      29.64F
$$

NCZ011-015-027-028-043-044-047-080-103-220300-
NORTHEASTERN NORTH CAROLINA

CITY           SKY/WX    TMP DP  RH WIND       PRES   REMARKS
ROCKY MT-WILSO CLOUDY    54  54 100 VRB3      29.70F FOG
GREENVILLE     DRIZZLE   55  55 100 E3        29.73F
WASHINGTON     CLOUDY    55  55  99 E7          N/A
ELIZABETH CITY LGT RAIN  51  50  96 E9        29.76F
MANTEO         DRIZZLE   51  51 100 E8        29.77F
CAPE HATTERAS  LGT RAIN  64  63  96 S9        29.76F FOG
$$

NCZ078-087-090-091-093-098-101-220300-
SOUTHEASTERN NORTH CAROLINA

CITY           SKY/WX    TMP DP  RH WIND       PRES   REMARKS
LUMBERTON      CLOUDY    65  62  90 S12       29.64R
GOLDSBORO      CLOUDY    58  58 100 NE6       29.66S
KINSTON        LGT RAIN  57  57 100 SE12      29.67F
KENANSVILLE    LGT RAIN  64  63  94 S12G24    29.64F
NEW BERN       CLOUDY    55  54  96 CALM      29.75F
CHERRY POINT   CLOUDY    54  52  93 CALM      29.75F
BEAUFORT       MOCLDY    56  55  97 E3        29.75S
JACKSONVILLE   LGT RAIN  61  61 100 CALM      29.73F
WILMINGTON     CLOUDY    64  64 100 SW8       29.72F
$$





USA.gov is the U.S. government's official web portal to all federal, state and local government web resources and services.